When you browse on this site, cookies collect data to enhance your experience and personalize the content and advertising you see.
Visit our Privacy Policy to learn more. By continuing to use the site, you agree to this use of cookies and data.
  • In United Kingdom
  • List of Countries
  • For 7 days
  • Water Temperature
  • Satellite Maps
  • Weather Map
  • Weather Widgets
  • user-avatar
    Login

    Hourly Weather Slobozia Mare

    Today, 17 February, Sunday

    Time Temperature Precipitation Wind Pressure Humidity
    00:00 +4°C° 0 mm 2 mps 767 mmHg 78%
    01:00 +4°C° 0 mm 2 mps 766 mmHg 78%
    02:00 +3°C° 0 mm 2 mps 766 mmHg 78%
    03:00 +3°C° 0 mm 2 mps 766 mmHg 78%
    04:00 +3°C° 0 mm 2 mps 766 mmHg 78%
    05:00 +3°C° 0 mm 2 mps 765 mmHg 78%
    06:00 +3°C° 0 mm 2 mps 765 mmHg 77%
    07:00 +3°C° 0 mm 2 mps 765 mmHg 76%
    08:00 +3°C° 0 mm 2 mps 765 mmHg 75%
    09:00 +5°C° 0 mm 2 mps 765 mmHg 67%
    10:00 +7°C° 0 mm 2 mps 765 mmHg 59%
    11:00 +9°C° 0 mm 2 mps 765 mmHg 51%
    12:00 +10°C° 0 mm 3 mps 765 mmHg 48%
    13:00 +11°C° 0 mm 3 mps 764 mmHg 44%
    14:00 +12°C° 0 mm 3 mps 764 mmHg 41%
    15:00 +12°C° 0 mm 3 mps 764 mmHg 43%
    16:00 +12°C° 0 mm 3 mps 763 mmHg 45%
    17:00 +12°C° 0 mm 2 mps 763 mmHg 48%
    18:00 +10°C° 0 mm 2 mps 763 mmHg 51%
    19:00 +9°C° 0 mm 2 mps 763 mmHg 55%
    20:00 +8°C° 0 mm 2 mps 763 mmHg 58%
    21:00 +8°C° 0 mm 2 mps 763 mmHg 60%
    22:00 +8°C° 0 mm 2 mps 763 mmHg 63%
    23:00 +7°C° 0 mm 2 mps 763 mmHg 65%

    Tomorrow, 18 February, Monday

    Time Temperature Precipitation Wind Pressure Humidity
    00:00 +7°C° 0 mm 2 mps 763 mmHg 67%
    01:00 +6°C° 0 mm 2 mps 763 mmHg 68%
    02:00 +6°C° 0 mm 2 mps 764 mmHg 70%
    03:00 +6°C° 0 mm 2 mps 764 mmHg 72%
    04:00 +4°C° 0 mm 3 mps 764 mmHg 75%
    05:00 +4°C° 0 mm 3 mps 763 mmHg 77%
    06:00 +3°C° 0 mm 3 mps 764 mmHg 77%
    07:00 +3°C° 0 mm 3 mps 764 mmHg 77%
    08:00 +3°C° 0 mm 3 mps 764 mmHg 78%
    09:00 +5°C° 0 mm 3 mps 764 mmHg 72%
    10:00 +8°C° 0 mm 3 mps 764 mmHg 66%
    11:00 +8°C° 0 mm 4 mps 765 mmHg 60%
    12:00 +10°C° 0 mm 4 mps 764 mmHg 57%
    13:00 +11°C° 0 mm 4 mps 764 mmHg 53%
    14:00 +12°C° 0 mm 3 mps 764 mmHg 50%
    15:00 +11°C° 0 mm 3 mps 764 mmHg 52%
    16:00 +11°C° 0 mm 3 mps 764 mmHg 54%
    17:00 +12°C° 0 mm 2 mps 764 mmHg 56%
    18:00 +9°C° 0 mm 2 mps 764 mmHg 62%
    19:00 +8°C° 0 mm 2 mps 764 mmHg 69%
    20:00 +7°C° 0 mm 2 mps 764 mmHg 75%
    21:00 +6°C° 0 mm 2 mps 764 mmHg 78%
    22:00 +6°C° 0 mm 2 mps 765 mmHg 80%
    23:00 +6°C° 0 mm 1 mps 765 mmHg 82%

    Day after tomorrow, 19 February, Tuesday

    Time Temperature Precipitation Wind Pressure Humidity
    00:00 +6°C° 0 mm 1 mps 765 mmHg 83%
    01:00 +6°C° 0 mm 1 mps 765 mmHg 84%
    02:00 +5°C° 0 mm 1 mps 765 mmHg 85%
    03:00 +5°C° 0 mm 1 mps 765 mmHg 85%
    04:00 +5°C° 0 mm 1 mps 765 mmHg 86%
    05:00 +4°C° 0 mm 1 mps 765 mmHg 86%
    06:00 +3°C° 0 mm 2 mps 765 mmHg 86%
    07:00 +3°C° 0 mm 2 mps 765 mmHg 85%
    08:00 +3°C° 0 mm 2 mps 765 mmHg 84%
    09:00 +4°C° 0 mm 3 mps 765 mmHg 76%
    10:00 +5°C° 0 mm 3 mps 765 mmHg 69%
    11:00 +8°C° 0 mm 3 mps 765 mmHg 61%
    12:00 +9°C° 0 mm 3 mps 765 mmHg 59%
    13:00 +10°C° 0 mm 3 mps 765 mmHg 56%
    14:00 +11°C° 0 mm 3 mps 764 mmHg 53%
    15:00 +10°C° 0 mm 4 mps 764 mmHg 54%
    16:00 +10°C° 0 mm 4 mps 764 mmHg 56%
    17:00 +10°C° 0 mm 4 mps 763 mmHg 58%
    18:00 +8°C° 0 mm 5 mps 763 mmHg 63%
    19:00 +7°C° 0 mm 5 mps 763 mmHg 68%
    20:00 +5°C° 0 mm 5 mps 763 mmHg 73%
    21:00 +5°C° 0 mm 5 mps 763 mmHg 76%
    22:00 +5°C° 0 mm 5 mps 763 mmHg 80%
    23:00 +4°C° 0 mm 4 mps 763 mmHg 83%

    20 February, Wednesday

    Time Temperature Precipitation Wind Pressure Humidity
    00:00 +4°C° 0 mm 4 mps 763 mmHg 86%
    01:00 +4°C° 0 mm 4 mps 762 mmHg 89%
    02:00 +3°C° 0 mm 3 mps 762 mmHg 92%
    03:00 +3°C° 0 mm 3 mps 762 mmHg 93%
    04:00 +3°C° 0 mm 3 mps 762 mmHg 94%
    05:00 +3°C° 0 mm 3 mps 761 mmHg 95%
    06:00 +3°C° 0 mm 3 mps 761 mmHg 95%
    07:00 +4°C° 0 mm 2 mps 761 mmHg 95%
    08:00 +4°C° 0 mm 2 mps 762 mmHg 95%
    09:00 +6°C° 0 mm 2 mps 762 mmHg 87%
    10:00 +7°C° 0 mm 2 mps 762 mmHg 78%
    11:00 +8°C° 0 mm 2 mps 762 mmHg 70%
    12:00 +10°C° 0 mm 2 mps 762 mmHg 62%
    13:00 +11°C° 0 mm 3 mps 761 mmHg 55%
    14:00 +12°C° 0 mm 3 mps 761 mmHg 48%
    15:00 +11°C° 0 mm 3 mps 761 mmHg 50%
    16:00 +11°C° 0 mm 3 mps 761 mmHg 53%
    17:00 +11°C° 0 mm 3 mps 761 mmHg 55%
    18:00 +10°C° 0 mm 2 mps 762 mmHg 60%
    19:00 +9°C° 0 mm 2 mps 762 mmHg 65%
    20:00 +9°C° 0 mm 1 mps 762 mmHg 70%
    21:00 +8°C° 0 mm 1 mps 763 mmHg 71%
    22:00 +8°C° 0 mm 1 mps 763 mmHg 72%
    23:00 +8°C° 0 mm 1 mps 763 mmHg 73%

    21 February, Thursday

    Time Temperature Precipitation Wind Pressure Humidity
    00:00 +7°C° 0 mm 1 mps 763 mmHg 74%
    01:00 +6°C° 0 mm 2 mps 763 mmHg 75%
    02:00 +6°C° 0 mm 2 mps 763 mmHg 76%
    03:00 +5°C° 0 mm 2 mps 763 mmHg 78%
    04:00 +5°C° 0 mm 2 mps 763 mmHg 80%
    05:00 +4°C° 0 mm 2 mps 763 mmHg 82%
    06:00 +5°C° 0 mm 2 mps 763 mmHg 81%
    07:00 +6°C° 0 mm 1 mps 764 mmHg 79%
    08:00 +6°C° 0 mm 1 mps 764 mmHg 78%
    09:00 +8°C° 0 mm 1 mps 764 mmHg 71%
    10:00 +8°C° 0 mm 2 mps 764 mmHg 64%
    11:00 +9°C° 0 mm 2 mps 764 mmHg 57%
    12:00 +10°C° 0 mm 3 mps 764 mmHg 54%
    13:00 +11°C° 0 mm 3 mps 764 mmHg 51%
    14:00 +12°C° 0 mm 3 mps 763 mmHg 48%
    15:00 +12°C° 0 mm 3 mps 763 mmHg 47%
    16:00 +13°C° 0 mm 2 mps 763 mmHg 47%
    17:00 +13°C° 0 mm 2 mps 763 mmHg 47%
    18:00 +12°C° 0 mm 2 mps 763 mmHg 50%
    19:00 +10°C° 0 mm 2 mps 763 mmHg 54%
    20:00 +9°C° 0 mm 2 mps 763 mmHg 57%
    21:00 +9°C° 0 mm 1 mps 763 mmHg 60%
    22:00 +9°C° 0 mm 1 mps 763 mmHg 62%
    23:00 +8°C° 0 mm 1 mps 763 mmHg 64%

    22 February, Friday

    Time Temperature Precipitation Wind Pressure Humidity
    00:00 +8°C° 0 mm 1 mps 763 mmHg 66%
    01:00 +8°C° 0 mm 1 mps 763 mmHg 67%
    02:00 +7°C° 0 mm 1 mps 762 mmHg 68%
    03:00 +6°C° 0 mm 2 mps 762 mmHg 70%
    04:00 +6°C° 0 mm 2 mps 761 mmHg 71%
    05:00 +6°C° 0 mm 2 mps 761 mmHg 72%
    06:00 +6°C° 0.1 mm 2 mps 761 mmHg 73%
    07:00 +6°C° 0.1 mm 2 mps 760 mmHg 74%
    08:00 +6°C° 0.1 mm 2 mps 760 mmHg 75%
    09:00 +7°C° 0.2 mm 2 mps 760 mmHg 72%
    10:00 +8°C° 0.2 mm 3 mps 759 mmHg 69%
    11:00 +8°C° 0.2 mm 3 mps 759 mmHg 67%
    12:00 +8°C° 0.2 mm 3 mps 758 mmHg 67%
    13:00 +9°C° 0.2 mm 3 mps 758 mmHg 67%
    14:00 +9°C° 0.2 mm 3 mps 757 mmHg 67%
    15:00 +8°C° 0.1 mm 4 mps 757 mmHg 68%
    16:00 +7°C° 0.1 mm 4 mps 757 mmHg 68%
    17:00 +7°C° 0.1 mm 4 mps 756 mmHg 69%
    18:00 +8°C° 0 mm 3 mps 757 mmHg 73%
    19:00 +7°C° 0 mm 3 mps 757 mmHg 78%
    20:00 +5°C° 0 mm 3 mps 757 mmHg 82%
    21:00 +3°C° 0 mm 5 mps 758 mmHg 81%
    22:00 +2°C° 0 mm 6 mps 759 mmHg 79%
    23:00 +1°C° 0 mm 8 mps 760 mmHg 78%
    Show more